SKYNET 5C

Last updated on Wed Jul 02 2025 00:02:44 GMT+0000 (Coordinated Universal Time)

1 33055U 08030A 25182.60798249 -.00000137 00000+0 00000+0 0 9990 2 33055 2.8887 81.2269 0004869 14.6933 25.0427 1.00272107 62448
UTC large
Height (km)
Speed (km/s)
/
Latitude / Longitude
Inclination (degrees)
Orbital Period (minutes)
Azimuth
Elevation
Range (km)
Doppler Factor

Next 0 passes for location: London (51.5072 / 0.1276)

Sorry there are no passes over London.